Location: Dodgeville, WI 53533, USA
(43.0344°N, 90.0900°W)
Time: 10:56:18
(UTC-06:00)

BlueWalker 3 - Pass Details

Date: 09 November 2025
Orbit: 455 x 462 km, 53.2° (Epoch: 11 December)

Event Time Altitude Azimuth Distance (km) Brightness Sun altitude
Exits shadow 05:09:02 47° 253° (WSW) 619 1.9 -17.8°
Maximum altitude 05:09:32 52° 222° (SW) 580 2.0 -17.8°
Drops below altitude 10° 05:13:02 10° 145° (SE) 1,598 5.1 -17.1°
Sets 05:15:12 0° 140° (SE) 2,466 6.2 -16.7°
